GW5942 Weather Reports


Display with metric or nautical units.
time (UTC)temp
F
wind
direction
speed
MPH
gust
MPH
rain 1hr
in
rain 24hr
in
rain mn
in
humidity
%
barometer
mb
20260505075506 50 129 2.0 3.0 0.00 0.00 0.00 81 1015.9
20260505075006 50 132 2.0 3.0 0.00 0.00 0.00 81 1015.9
20260505074856 50 180 0.0 2.0 0.00 0.00 0.00 80 1012.2
20260505074509 51 119 2.0 3.0 0.00 0.00 0.00 80 1015.9
20260505074008 51 123 2.0 3.0 0.00 0.00 0.00 80 1015.9
20260505073856 51 180 0.0 0.0 0.00 0.00 0.00 79 1012.2
20260505073509 51 119 2.0 3.0 0.00 0.00 0.00 79 1015.8
20260505073026 51 120 2.0 3.0 0.00 0.00 0.00 78 1015.9
20260505072854 51 180 0.0 1.0 0.00 0.00 0.00 78 1012.2
20260505072508 52 112 2.0 2.0 0.00 0.00 0.00 78 1015.9
20260505072006 52 112 1.0 2.0 0.00 0.00 0.00 77 1015.8
20260505071854 52 180 0.0 0.0 0.00 0.00 0.00 78 1012.2
20260505071506 52 113 0.0 1.0 0.00 0.00 0.00 77 1015.8
20260505071002 53 106 0.0 0.0 0.00 0.00 0.00 76 1015.8
20260505070509 53 106 0.0 2.0 0.00 0.00 0.00 76 1015.8
20260505070012 53 106 0.0 2.0 0.00 0.00 0.00 76 1015.8
20260505065851 52 180 0.0 0.0 0.00 0.00 0.00 77 1012.1
20260505065507 53 106 0.0 2.0 0.00 0.00 0.00 75 1015.7
20260505065012 53 115 1.0 2.0 0.00 0.00 0.00 76 1015.7
20260505064850 53 180 0.0 0.0 0.00 0.00 0.00 77 1012.0
20260505064518 53 142 0.0 2.0 0.00 0.00 0.00 75 1015.6
20260505064006 53 150 0.0 2.0 0.00 0.00 0.00 75 1015.6
20260505063849 52 180 0.0 0.0 0.00 0.00 0.00 78 1011.9
20260505063503 53 155 1.0 3.0 0.00 0.00 0.00 76 1015.6
20260505063021 53 166 0.0 3.0 0.00 0.00 0.00 76 1015.5
20260505062848 52 180 0.0 0.0 0.00 0.00 0.00 78 1011.9
20260505062511 53 144 0.0 2.0 0.00 0.00 0.00 77 1015.4
20260505062008 53 146 0.0 2.0 0.00 0.00 0.00 79 1015.5
20260505061847 52 180 0.0 0.0 0.00 0.00 0.00 81 1011.9
20260505061512 52 146 0.0 2.0 0.00 0.00 0.00 79 1015.5
20260505061007 52 136 0.0 2.0 0.00 0.00 0.00 80 1015.5
20260505060846 52 180 0.0 0.0 0.00 0.00 0.00 82 1011.9
20260505060511 52 136 0.0 2.0 0.00 0.00 0.00 80 1015.5
20260505060025 52 136 0.0 2.0 0.00 0.00 0.00 81 1015.4
20260505055845 52 180 0.0 0.0 0.00 0.00 0.00 82 1011.8
20260505055509 52 119 1.0 2.0 0.00 0.00 0.00 81 1015.5
20260505055006 52 119 0.0 2.0 0.00 0.00 0.00 82 1015.4
20260505054844 52 180 0.0 0.0 0.00 0.00 0.00 82 1011.9
20260505054516 52 119 1.0 2.0 0.00 0.00 0.00 82 1015.5
20260505054007 52 119 1.0 2.0 0.00 0.00 0.00 82 1015.5
20260505053843 52 180 0.0 1.0 0.00 0.00 0.00 82 1012.0
20260505053507 52 126 1.0 2.0 0.00 0.00 0.00 82 1015.5
20260505053021 52 131 1.0 2.0 0.00 0.00 0.00 82 1015.6
20260505052842 52 180 0.0 0.0 0.00 0.00 0.00 81 1012.0
20260505052507 52 120 1.0 2.0 0.00 0.00 0.00 82 1015.5
20260505052006 52 136 2.0 2.0 0.00 0.00 0.00 82 1015.5
20260505051842 52 180 0.0 0.0 0.00 0.00 0.00 81 1012.0
20260505051534 53 142 1.0 2.0 0.00 0.00 0.00 82 1015.6
20260505051010 53 123 1.0 3.0 0.00 0.00 0.00 81 1015.6
20260505050840 52 180 0.0 0.0 0.00 0.00 0.00 81 1012.1
20260505050507 53 130 2.0 3.0 0.00 0.00 0.00 81 1015.6
20260505041541 55 118 2.0 2.0 0.00 0.00 0.00 78 1015.3
20260505041006 55 126 1.0 2.0 0.00 0.00 0.00 78 1015.4
20260505040834 54 180 0.0 0.0 0.00 0.00 0.00 79 1011.8
20260505040509 55 138 1.0 2.0 0.00 0.00 0.00 78 1015.4
20260505040026 55 136 0.0 2.0 0.00 0.00 0.00 78 1015.4
20260505035833 54 180 0.0 0.0 0.00 0.00 0.00 80 1011.9
20260505035510 55 157 1.0 2.0 0.00 0.00 0.00 78 1015.5
20260505035007 55 126 1.0 3.0 0.00 0.00 0.00 78 1015.5
20260505034831 54 180 0.0 2.0 0.00 0.00 0.00 80 1011.8
20260505034524 55 110 1.0 6.0 0.00 0.00 0.00 78 1015.4
20260505034009 55 112 2.0 6.0 0.00 0.00 0.00 79 1015.4
20260505033830 54 180 1.0 3.0 0.00 0.00 0.00 79 1011.8
20260505033508 55 163 1.0 3.0 0.00 0.00 0.00 79 1015.4
20260505033024 55 131 1.0 2.0 0.00 0.00 0.00 79 1015.5
20260505032830 54 180 0.0 2.0 0.00 0.00 0.00 79 1011.9
20260505032512 55 117 1.0 2.0 0.00 0.00 0.00 79 1015.6
20260505032008 55 117 2.0 3.0 0.00 0.00 0.00 79 1015.6
20260505031528 55 121 2.0 3.0 0.00 0.00 0.00 79 1015.6
20260505031004 55 117 2.0 3.0 0.00 0.00 0.00 78 1015.7
20260505030827 55 180 3.0 3.0 0.00 0.00 0.00 79 1012.2
20260505030504 55 133 3.0 3.0 0.00 0.00 0.00 78 1015.7
20260505030002 56 119 2.0 2.0 0.00 0.00 0.00 77 1015.8
20260505025826 56 180 0.0 0.0 0.00 0.00 0.00 77 1012.2
20260505025509 56 111 0.0 3.0 0.00 0.00 0.00 77 1015.8
20260505025004 56 123 1.0 3.0 0.00 0.00 0.00 77 1015.8
20260505024825 56 180 0.0 2.0 0.00 0.00 0.00 76 1012.2
20260505024507 56 119 2.0 3.0 0.00 0.00 0.00 76 1015.9
20260505024003 56 107 1.0 3.0 0.00 0.00 0.00 76 1015.9
20260505023824 56 180 0.0 3.0 0.00 0.00 0.00 75 1012.3
20260505023503 56 115 2.0 2.0 0.00 0.00 0.00 75 1015.8
20260505023010 56 130 0.0 2.0 0.00 0.00 0.00 75 1015.9
20260505022824 57 229 0.0 2.0 0.00 0.00 0.00 75 1012.3
20260505022503 57 115 1.0 2.0 0.00 0.00 0.00 75 1015.8
20260505022003 57 115 1.0 2.0 0.00 0.00 0.00 75 1015.8
20260505021823 57 229 0.0 0.0 0.00 0.00 0.00 73 1012.2
20260505021504 57 115 2.0 2.0 0.00 0.00 0.00 74 1015.7
20260505021002 57 115 1.0 2.0 0.00 0.00 0.00 74 1015.7
20260505020503 58 115 2.0 2.0 0.00 0.00 0.00 73 1015.7
20260505020004 58 115 1.0 2.0 0.00 0.00 0.00 72 1015.6
20260505015820 59 229 1.0 2.0 0.00 0.00 0.00 70 1012.0
20260505015504 58 115 1.0 2.0 0.00 0.00 0.00 72 1015.6
20260505015005 59 115 1.0 2.0 0.00 0.00 0.00 71 1015.5
20260505014820 60 229 0.0 1.0 0.00 0.00 0.00 69 1011.9
20260505014509 59 115 1.0 2.0 0.00 0.00 0.00 71 1015.5
20260505014002 59 115 1.0 1.0 0.00 0.00 0.00 70 1015.5
20260505013819 60 229 0.0 2.0 0.00 0.00 0.00 68 1011.8
20260505013504 60 115 1.0 2.0 0.00 0.00 0.00 69 1015.5
20260505013004 60 115 1.0 2.0 0.00 0.00 0.00 69 1015.5
20260505012505 61 115 1.0 2.0 0.00 0.00 0.00 67 1015.4
20260505012003 61 115 0.0 2.0 0.00 0.00 0.00 66 1015.3
20260505011517 62 115 1.0 2.0 0.00 0.00 0.00 66 1015.2
20260505011004 62 114 1.0 2.0 0.00 0.00 0.00 64 1015.2
20260505010503 63 120 1.0 2.0 0.00 0.00 0.00 64 1015.2
20260505010009 63 119 1.0 1.0 0.00 0.00 0.00 62 1015.1
20260505005814 64 229 0.0 1.0 0.00 0.00 0.00 62 1011.5
20260505005503 64 119 1.0 2.0 0.00 0.00 0.00 62 1015.1
20260505005003 64 119 1.0 2.0 0.00 0.00 0.00 61 1015.0
20260505004813 65 229 0.0 1.0 0.00 0.00 0.00 61 1011.4
20260505004506 65 125 1.0 2.0 0.00 0.00 0.00 60 1014.9
20260505004004 66 124 0.0 2.0 0.00 0.00 0.00 58 1014.9
20260505003813 66 229 0.0 2.0 0.00 0.00 0.00 58 1011.4
20260505003502 66 125 0.0 2.0 0.00 0.00 0.00 56 1014.9
20260505003008 67 242 0.0 2.0 0.00 0.00 0.00 56 1015.0
20260505002811 68 229 1.0 1.0 0.00 0.00 0.00 54 1011.3
20260505002506 68 235 0.0 2.0 0.00 0.00 0.00 54 1015.0
20260505002006 68 235 0.0 2.0 0.00 0.00 0.00 53 1015.0
20260505001810 69 223 0.0 0.0 0.00 0.00 0.00 53 1011.3
20260505001504 69 235 0.0 2.0 0.00 0.00 0.00 53 1015.0
20260505001003 70 235 0.0 2.0 0.00 0.00 0.00 51 1014.9
20260505000809 70 223 0.0 0.0 0.00 0.00 0.00 49 1011.3
20260505000506 70 235 0.0 1.0 0.00 0.00 0.00 49 1014.9
20260505000005 70 235 0.0 2.0 0.00 0.00 0.00 50 1014.9
20260504235808 71 223 0.0 0.0 0.00 0.00 0.00 50 1011.3
20260504235504 71 235 0.0 2.0 0.00 0.00 0.00 48 1014.9
20260504235002 71 235 0.0 2.0 0.00 0.00 0.00 47 1014.9
20260504234807 72 223 0.0 0.0 0.00 0.00 0.00 50 1011.3
20260504234503 72 235 0.0 2.0 0.00 0.00 0.00 46 1014.9
20260504234002 72 317 0.0 2.0 0.00 0.00 0.00 47 1014.8
20260504233805 72 223 0.0 2.0 0.00 0.00 0.00 49 1011.2
20260504233503 72 317 0.0 2.0 0.00 0.00 0.00 46 1014.7
20260504233007 73 10 0.0 5.0 0.00 0.00 0.00 44 1014.7
20260504232805 73 223 0.0 4.0 0.00 0.00 0.00 46 1011.2
20260504232503 73 254 1.0 5.0 0.00 0.00 0.00 45 1014.8
20260504232002 73 248 1.0 6.0 0.00 0.00 0.00 43 1014.8
20260504231804 74 236 1.0 5.0 0.00 0.00 0.00 45 1011.2
20260504231510 74 229 1.0 6.0 0.00 0.00 0.00 44 1014.8
20260504231007 74 205 1.0 4.0 0.00 0.00 0.00 43 1014.8
20260504230505 75 147 1.0 4.0 0.00 0.00 0.00 43 1014.7
20260504230010 75 180 1.0 4.0 0.00 0.00 0.00 43 1014.7
20260504225803 76 283 1.0 6.0 0.00 0.00 0.00 44 1011.1
20260504225506 76 294 1.0 5.0 0.00 0.00 0.00 41 1014.7
20260504225008 76 303 1.0 5.0 0.00 0.00 0.00 43 1014.7
20260504224800 76 249 0.0 4.0 0.00 0.00 0.00 44 1011.1
20260504224508 76 205 1.0 4.0 0.00 0.00 0.00 42 1014.7
20260504224003 76 259 0.0 6.0 0.00 0.00 0.00 42 1014.7
20260504223504 77 306 3.0 6.0 0.00 0.00 0.00 41 1014.7
20260504223004 77 304 1.0 5.0 0.00 0.00 0.00 43 1014.7
20260504222759 77 238 2.0 8.0 0.00 0.00 0.00 42 1011.1
20260504222503 77 206 2.0 6.0 0.00 0.00 0.00 42 1014.7
20260504222006 77 267 1.0 6.0 0.00 0.00 0.00 40 1014.7
20260504221758 77 274 1.0 7.0 0.00 0.00 0.00 40 1011.3
20260504221508 78 292 2.0 8.0 0.00 0.00 0.00 43 1014.8
20260504221003 78 247 2.0 8.0 0.00 0.00 0.00 39 1014.8
20260504220757 78 233 4.0 6.0 0.00 0.00 0.00 40 1011.3
20260504220506 78 237 4.0 7.0 0.00 0.00 0.00 40 1014.9
20260504220012 78 265 1.0 6.0 0.00 0.00 0.00 41 1014.7
20260504215755 78 261 1.0 7.0 0.00 0.00 0.00 43 1011.3
20260504215510 78 220 2.0 6.0 0.00 0.00 0.00 40 1014.8
20260504215006 78 248 1.0 3.0 0.00 0.00 0.00 43 1014.8
20260504214754 78 244 1.0 10.0 0.00 0.00 0.00 41 1011.3
20260504214528 78 116 0.0 8.0 0.00 0.00 0.00 43 1014.7
20260504214014 78 269 2.0 8.0 0.00 0.00 0.00 43 1014.8
20260504213754 77 208 1.0 7.0 0.00 0.00 0.00 41 1011.2
20260504213503 78 152 1.0 4.0 0.00 0.00 0.00 40 1014.7
20260504213012 78 309 1.0 4.0 0.00 0.00 0.00 43 1014.7
20260504212752 77 315 1.0 4.0 0.00 0.00 0.00 39 1011.2
20260504212503 77 244 1.0 4.0 0.00 0.00 0.00 42 1014.7
20260504212005 78 18 2.0 5.0 0.00 0.00 0.00 39 1014.8
20260504211752 78 64 1.0 5.0 0.00 0.00 0.00 40 1011.4
20260504211507 78 189 2.0 7.0 0.00 0.00 0.00 38 1014.9
20260504211003 78 313 2.0 7.0 0.00 0.00 0.00 43 1015.0
20260504210750 78 236 4.0 8.0 0.00 0.00 0.00 39 1011.5
20260504210503 78 61 2.0 7.0 0.00 0.00 0.00 42 1015.0
20260504210010 78 205 1.0 8.0 0.00 0.00 0.00 45 1015.0
20260504205750 78 159 2.0 8.0 0.00 0.00 0.00 39 1011.6
20260504205507 78 167 4.0 10.0 0.00 0.00 0.00 41 1015.1
20260504205007 78 325 2.0 10.0 0.00 0.00 0.00 42 1015.2
20260504204749 78 277 8.0 8.0 0.00 0.00 0.00 39 1011.7
20260504204516 78 29 2.0 7.0 0.00 0.00 0.00 39 1015.2
20260504204004 78 168 3.0 7.0 0.00 0.00 0.00 40 1015.2
20260504203747 78 218 5.0 7.0 0.00 0.00 0.00 37 1011.8
20260504203509 78 180 2.0 6.0 0.00 0.00 0.00 40 1015.3
20260504203022 78 282 2.0 9.0 0.00 0.00 0.00 39 1015.3
20260504202746 78 165 6.0 7.0 0.00 0.00 0.00 38 1011.9
20260504202511 78 209 1.0 9.0 0.00 0.00 0.00 47 1015.3
20260504202006 78 43 1.0 8.0 0.00 0.00 0.00 38 1015.3
20260504201522 78 265 3.0 5.0 0.00 0.00 0.00 39 1015.4
20260504201008 78 49 1.0 6.0 0.00 0.00 0.00 41 1015.4
20260504200744 78 246 3.0 7.0 0.00 0.00 0.00 37 1012.1
20260504200503 77 276 3.0 6.0 0.00 0.00 0.00 39 1015.5
20260504200017 77 230 1.0 8.0 0.00 0.00 0.00 42 1015.6
20260504195743 77 262 0.0 9.0 0.00 0.00 0.00 37 1012.3
20260504195505 77 330 2.0 8.0 0.00 0.00 0.00 38 1015.7
20260504195007 77 238 3.0 7.0 0.00 0.00 0.00 44 1015.8
20260504194743 77 241 3.0 9.0 0.00 0.00 0.00 40 1012.5
20260504194514 77 12 3.0 6.0 0.00 0.00 0.00 44 1015.9
20260504194007 77 56 0.0 5.0 0.00 0.00 0.00 44 1016.0
20260504193741 77 118 0.0 9.0 0.00 0.00 0.00 41 1012.7
20260504193514 77 272 1.0 8.0 0.00 0.00 0.00 42 1016.1
20260504193008 76 360 2.0 8.0 0.00 0.00 0.00 46 1016.2
20260504192512 76 236 1.0 5.0 0.00 0.00 0.00 52 1016.2
20260504192008 76 289 2.0 6.0 0.00 0.00 0.00 44 1016.3
20260504191739 76 211 2.0 7.0 0.00 0.00 0.00 42 1013.1
20260504191524 75 186 2.0 10.0 0.00 0.00 0.00 46 1016.4
20260504191006 75 207 2.0 10.0 0.00 0.00 0.00 43 1016.5
20260504190739 76 312 1.0 6.0 0.00 0.00 0.00 44 1013.2
20260504190511 75 323 3.0 6.0 0.00 0.00 0.00 48 1016.5
20260504190026 74 220 2.0 6.0 0.00 0.00 0.00 53 1016.6
20260504185738 75 202 3.0 7.0 0.00 0.00 0.00 43 1013.5
20260504185506 74 295 1.0 9.0 0.00 0.00 0.00 43 1016.7
20260504185006 74 294 3.0 11.0 0.00 0.00 0.00 45 1016.8
20260504184736 75 306 8.0 9.0 0.00 0.00 0.00 43 1013.6
20260504184515 74 316 5.0 11.0 0.00 0.00 0.00 48 1016.9
20260504184005 74 90 3.0 10.0 0.00 0.00 0.00 45 1017.0
20260504183507 74 306 1.0 9.0 0.00 0.00 0.00 45 1017.0
20260504183024 75 306 3.0 9.0 0.00 0.00 0.00 45 1017.1
20260504182734 75 292 5.0 9.0 0.00 0.00 0.00 43 1013.9
20260504182509 74 307 2.0 9.0 0.00 0.00 0.00 47 1017.1
20260504182010 74 227 3.0 11.0 0.00 0.00 0.00 48 1017.2
20260504181733 75 217 0.0 10.0 0.00 0.00 0.00 42 1014.0
20260504181518 74 327 1.0 11.0 0.00 0.00 0.00 46 1017.2
20260504181010 73 205 2.0 7.0 0.00 0.00 0.00 44 1017.2
20260504180732 74 360 2.0 6.0 0.00 0.00 0.00 42 1014.0
20260504180511 73 302 3.0 8.0 0.00 0.00 0.00 46 1017.3
20260504180014 73 178 1.0 10.0 0.00 0.00 0.00 51 1017.3
20260504175731 74 259 0.0 9.0 0.00 0.00 0.00 42 1014.2
20260504175507 73 63 3.0 10.0 0.00 0.00 0.00 47 1017.4
20260504175011 73 299 3.0 8.0 0.00 0.00 0.00 49 1017.5
20260504174730 73 329 2.0 10.0 0.00 0.00 0.00 45 1014.3
20260504174526 73 46 1.0 8.0 0.00 0.00 0.00 45 1017.4
20260504174005 73 272 3.0 11.0 0.00 0.00 0.00 44 1017.6
20260504173729 73 260 2.0 11.0 0.00 0.00 0.00 45 1014.6
20260504173510 73 182 2.0 11.0 0.00 0.00 0.00 48 1017.7
20260504173018 73 233 3.0 7.0 0.00 0.00 0.00 49 1017.8
20260504172727 72 267 7.0 10.0 0.00 0.00 0.00 43 1014.6
20260504172512 72 189 2.0 7.0 0.00 0.00 0.00 52 1017.7
20260504172011 72 150 3.0 7.0 0.00 0.00 0.00 48 1017.8
20260504171727 72 276 2.0 9.0 0.00 0.00 0.00 45 1014.8
20260504171524 72 352 2.0 8.0 0.00 0.00 0.00 45 1017.9
20260504171003 72 283 3.0 9.0 0.00 0.00 0.00 47 1018.0
20260504170726 71 207 4.0 6.0 0.00 0.00 0.00 45 1014.9
20260504170503 72 184 3.0 7.0 0.00 0.00 0.00 56 1018.1
20260504151003 63 34 4.0 9.0 0.00 0.00 0.00 54 1020.1
20260504150714 64 5 2.0 5.0 0.00 0.00 0.00 51 1017.3
20260504150501 63 11 3.0 6.0 0.00 0.00 0.00 59 1020.1
20260504141004 58 9 2.0 5.0 0.00 0.00 0.00 61 1020.6
20260504140707 59 62 2.0 5.0 0.00 0.00 0.00 58 1017.8
20260504140504 58 360 2.0 4.0 0.00 0.00 0.00 63 1020.6
20260504130506 54 29 4.0 6.0 0.00 0.00 0.00 73 1020.0
20260504110648 41 88 1.0 3.0 0.00 0.00 0.00 88 1016.4
20260504110502 39 133 4.0 4.0 0.00 0.00 0.00 89 1019.0
20260504100506 39 119 1.0 3.0 0.00 0.00 0.00 90 1019.1
20260504082007 39 161 5.0 6.0 0.00 0.00 0.00 87 1019.3
20260504081527 39 142 2.0 2.0 0.00 0.00 0.00 88 1019.5
20260504081004 39 115 2.0 2.0 0.00 0.00 0.00 88 1019.7
20260504080630 39 158 0.0 1.0 0.00 0.00 0.00 87 1017.2
20260504080507 39 117 2.0 2.0 0.00 0.00 0.00 88 1019.7